sat.trackr.live / text

‹ back to catalog

FOX-1CLIFF (AO-95)

NORAD 43770 · 2018-099N

PAYLOAD ACTIVE UNKNOWN

§ Identity

Operator
Country
US
Launch date
2018-12-03
Launch site
AFWTR
Launch vehicle
Mass (kg)
RCS (m²)

Purposes: comms

External: N2YO · Heavens-Above · Gunter

§ Orbital elements

Epoch: 2026-05-25T03:12:44.869824Z

Period
94.36 min
Inclination
97.4400°
Eccentricity
0.0010195
Mean motion
15.26130177 rev/d
Perigee alt
480.4 km
Apogee alt
494.4 km
Semi-major
6,865.5 km
B*
4.1181e-4
RAAN
205.4732°
Arg perigee
75.0152°
Mean anomaly
285.2214°
Rev number
40,970

§ Raw data

FOX-1CLIFF (AO-95)1 43770U 18099N   26145.13385266  .00010577  00000+0  41181-3 0  99972 43770  97.4400 205.4732 0010195  75.0152 285.2214 15.26130177409703

JSON: /api/v1/satellites/43770 · /tle

For live sub-satellite position, see the globe view (requires WebGL).

§ Visibility from observer

Set your observer location to see the next 7 days of passes ≥ 10°. The values pass through the URL so the page stays shareable.

No JS? Fill the form by hand. The geolocation button needs JavaScript.

§ Radio — SatNOGS DB

ModeDescriptionDownlinkUplink
AFSK AFSK9k6 digital data 145.920 MHz
DUV DUV TLM 145.920 MHz
FM L/V FM (inactive) 145.920 MHz 1.267 GHz
FM U/V FM (inactive) 145.920 MHz 435.300 MHz

4 transmitters · refreshed weekly from db.satnogs.org